Home   Weather   Pullman   Past weeks

Flag for USA Past Weather in Pullman, Washington, USA — Yesterday and Last 2 Weeks

Now
49 °F

Mostly cloudy.


Feels Like: 43 °F
Forecast: 41 / 48 °F
Wind: 16 mph from West

Location: Pullman / Moscow Regional Airport

Current Time: Apr 26, 2017 at 11:17:01 am

Latest Report: Apr 26, 2017 at 10:35 am


Visibility: 10 mi

Pressure: 29.76 "Hg (27.29 "Hg at 715m altitude)

Humidity: 74%

Dew Point: 41 °F

Location of PullmanLocation

Past Weather in Pullman — Graph

°F

Pullman Temperature Yesterday

Maximum temperature yesterday: 53 °F (at 1:53 pm)
Minimum temperature yesterday: 41 °F (at 2:32 am)
Average temperature yesterday: 45 °F

High & Low Weather Summary for the Past Weeks

 TemperatureHumidityPressure
High65 °F (Apr 22, 1:53 pm)93% (Apr 12, 11:53 pm)30.41 "Hg (Apr 12, 11:53 pm)
Low35 °F (Apr 14, 11:53 pm)28% (Apr 11, 2:53 pm)29.64 "Hg (Apr 13, 2:53 am)
Average47 °F71%29.97 "Hg
* Reported Apr 11 9:53 am — Apr 26 9:53 am, Pullman, Weather by CustomWeather, © 2017

Note: Actual official high and low records may vary slightly from our data, if they occured in-between our weather recording intervals... More about our weather records

Advertising

Pullman Weather History for the Previous 24 Hours

Scroll right to see more
 ConditionsComfort  
Time TempWeatherWind HumidityBarometerVisibility
9:53 am
Wed, Apr 26
48 °FScattered clouds.21 mph71%29.78 "Hg10 mi
8:53 am47 °FSunny.18 mph74%29.76 "Hg10 mi
7:53 am45 °FPassing clouds.16 mph86%29.75 "Hg10 mi
7:34 am45 °FBroken clouds.12 mph86%29.74 "Hg10 mi
7:14 am45 °FMostly cloudy.14 mph90%29.75 "Hg10 mi
6:53 am44 °FLight rain. Fog.12 mph93%29.77 "Hg6 mi
5:53 am44 °FLight rain. Fog.12 mph93%29.76 "Hg6 mi
4:53 am44 °FLight rain. Low clouds.5 mph89%29.78 "Hg7 mi
3:53 am43 °FLight rain. Fog.6 mph93%29.78 "Hg4 mi
2:53 am44 °FLight rain. Mostly cloudy.3 mph89%29.79 "Hg7 mi
2:34 am44 °FLight rain. Mostly cloudy.No wind89%29.78 "Hg9 mi
1:53 am44 °FLight rain. Fog.8 mph89%29.81 "Hg6 mi
1:37 am44 °FLight rain. Low clouds.7 mph89%29.80 "Hg7 mi
12:53 am44 °FLight rain. Fog.3 mph85%29.83 "Hg5 mi
11:53 pm
Tue, Apr 25
44 °FLight rain. Mostly cloudy.3 mph89%29.84 "Hg7 mi
11:24 pm44 °FLight rain. Overcast.No wind89%29.83 "Hg10 mi
11:03 pm44 °FRain. Fog.7 mph89%29.84 "Hg3 mi
9:53 pm46 °FMostly cloudy.No wind79%29.85 "Hg10 mi
8:53 pm47 °FClear.3 mph77%29.86 "Hg10 mi
7:53 pm49 °FClear.5 mph69%29.86 "Hg10 mi
6:53 pm51 °FSunny.5 mph56%29.86 "Hg10 mi
5:53 pm51 °FPartly sunny.6 mph61%29.88 "Hg10 mi
4:53 pm51 °FMostly cloudy.9 mph61%29.89 "Hg10 mi
3:53 pm52 °FPassing clouds.10 mph59%29.89 "Hg10 mi
2:53 pm53 °FScattered clouds.12 mph59%29.91 "Hg10 mi
1:53 pm53 °FBroken clouds.8 mph61%29.92 "Hg10 mi
1:01 pm49 °FCloudy.9 mph69%29.92 "Hg10 mi
12:32 pm49 °FMore clouds than sun.9 mph71%29.93 "Hg10 mi
11:53 am48 °FMostly cloudy.10 mph74%29.95 "Hg10 mi
Weather by CustomWeather, © 2017

See weather overviewHow to use our weather pages